Flag for Canada Weather past 2 weeks in Maple Ridge, British Columbia, Canada

Now
54 °F

Cool.


Feels Like: 54 °F
Forecast: 41 / 53 °F
Wind: 3 mph from West

Location: P. Meadows Coastal Station

Current Time: Apr 25, 2015 at 3:55:49 PM

Latest Report: Apr 25, 2015 at 3:00 PM


Visibility: N/A

Pressure: 30.00 "Hg

Humidity: 55%

Dew point: 38 °F

Location of Maple RidgeLocation

Historic Weather in Maple Ridge — Graph

°F

Maple Ridge temperature yesterday

Maximum temperature yesterday: 48 °F (at 6:00 PM)
Minimum temperature yesterday: 40 °F (at 12:00 PM)
Average temperature yesterday: 43 °F

Past Weeks' High & Low Weather Summary

 TemperatureHumidityPressure
High72 °F (Apr 20, 4:00 PM)100% (Apr 14, 5:00 AM)30.54 "Hg (Apr 14, 5:00 AM)
Low36 °F (Apr 14, 5:00 AM)34% (Apr 22, 2:00 PM)29.71 "Hg (Apr 10, 9:00 PM)
Average49 °F76%30.07 "Hg
* Reported Apr 10 2:00 PM — Apr 25 2:00 PM, Maple Ridge, Weather by CustomWeather, © 2015

Note: Actual official high and low records may vary slightly from our data, if they occured in-between our weather recording intervals... More about our weather records

Advertising

Maple Ridge weather history for previous 24 hours

 ConditionsComfort  
Time TempWeatherWind HumidityBarometerVisibility
2:00 PM
Sat, Apr 25
54 °FCool.6 mph71%30.00 "HgN/A
1:00 PM51 °FCool.5 mph71%30.00 "HgN/A
12:00 PM50 °FCool.2 mph69%29.99 "HgN/A
11:00 AM50 °FCool.3 mph68%29.98 "HgN/A
10:00 AM48 °FCool.3 mph71%29.97 "HgN/A
9:00 AM46 °FCool.2 mph78%29.96 "HgN/A
8:00 AM42 °FQuite cool.3 mph94%29.95 "HgN/A
7:00 AM42 °FQuite cool.No wind90%29.93 "HgN/A
6:00 AM42 °FQuite cool.2 mph93%29.92 "HgN/A
5:00 AM42 °FQuite cool.2 mph93%29.91 "HgN/A
4:00 AM42 °FQuite cool.2 mph94%29.90 "HgN/A
3:00 AM42 °FQuite cool.No wind95%29.90 "HgN/A
2:00 AM42 °FQuite cool.No wind94%29.89 "HgN/A
1:00 AM40 °FQuite cool.6 mph99%29.88 "HgN/A
12:00 AM42 °FQuite cool.3 mph93%29.88 "HgN/A
11:00 PM
Fri, Apr 24
43 °FQuite cool.No wind94%29.88 "HgN/A
10:00 PM43 °FQuite cool.3 mph94%29.86 "HgN/A
9:00 PM44 °FQuite cool.3 mph94%29.87 "HgN/A
8:00 PM45 °FCool.6 mph87%29.84 "HgN/A
7:00 PM46 °FCool.8 mph82%29.83 "HgN/A
6:00 PM48 °FCool.7 mph75%29.82 "HgN/A
4:00 PM48 °FCool.8 mph77%29.81 "HgN/A
3:00 PM45 °FQuite cool.10 mph86%29.81 "HgN/A
Weather by CustomWeather, © 2015

See weather overviewHow to use our weather pages